Weather History for Fredericksburg, VA

Change the Weather History Date:

Tuesday, January 29, 2013

  Actual Average (KNYG) Record (KNYG)
Temperature  
Mean Temperature 60 °F -  
Max Temperature 75 °F 41 °F 69 °F (2002)
Min Temperature 45 °F 26 °F 9 °F (2014)
Degree Days  
Heating Degree Days 5    
Growing Degree Days 10 (Base 50)    
Moisture  
Dew Point 50 °F    
Average Humidity 69    
Maximum Humidity 90    
Minimum Humidity 47    
Precipitation  
Precipitation 0.00 in - - ()
Sea Level Pressure  
Sea Level Pressure 30.06 in    
Wind  
Wind Speed 6 mph (South)    
Max Wind Speed 10 mph    
Max Gust Speed 18 mph    
Visibility 10 miles    
Events      
Averages and records for this station are not official NWS values.
T = Trace of Precipitation, MM = Missing Value Source: NWS Daily Summary

Daily Weather History Graph

Daily Weather History Graph

Search for Another Location

Airport:

Trip Planner

Search our weather history database for the weather conditions in past years. The results will help you decide how hot, cold, wet, or windy it might be!

Date:

Astronomy

Jan. 29, 2013 Rise Set
Actual Time 7:17 AM EST 5:29 PM EST
Civil Twilight 6:49 AM EST 5:57 PM EST
Nautical Twilight 6:17 AM EST 6:29 PM EST
Astronomical Twilight 5:46 AM EST 7:00 PM EST
Moon 8:20 PM EST (1/29) 8:15 AM EST (1/29)
Length of Visible Light 11h 08m
Length of Day
10h 12m
Waning Gibbous, 94% of the Moon is Illuminated
Jan 29
Waning Gibbous
Feb 3
Last Quarter
Feb 10
New
Feb 17
First Quarter
Feb 25
Full

Hourly Weather History & Observations

Time (EST) Temp. Windchill Dew Point Humidity Pressure Visibility Wind Dir Wind Speed Gust Speed Precip Events Conditions
12:15 AM 50.9 °F - 44.8 °F 80% 30.08 in 10.0 mi SSW 9.2 mph 17.3 mph N/A   Unknown
12:35 AM 50.9 °F - 44.6 °F 79% 30.07 in 10.0 mi SW 6.9 mph 17.3 mph N/A   Clear
12:55 AM 50.9 °F - 44.6 °F 79% 30.07 in 10.0 mi SW 4.6 mph - N/A   Clear
1:15 AM 50.7 °F - 44.6 °F 80% 30.07 in 10.0 mi SSW 6.9 mph - N/A   Clear
1:35 AM 50.5 °F - 44.2 °F 79% 30.07 in 10.0 mi SSW 5.8 mph - N/A   Clear
1:55 AM 50.5 °F - 44.2 °F 79% 30.07 in 10.0 mi SW 5.8 mph - N/A   Clear
2:15 AM 50.4 °F - 44.2 °F 80% 30.07 in 10.0 mi SSW 10.4 mph - N/A   Clear
2:35 AM 50.0 °F - 44.1 °F 80% 30.07 in 10.0 mi SW 9.2 mph - N/A   Clear
2:55 AM 50.2 °F - 44.1 °F 79% 30.07 in 10.0 mi SW 9.2 mph 18.4 mph N/A   Clear
3:15 AM 49.8 °F - 44.1 °F 81% 30.07 in 10.0 mi SW 9.2 mph - N/A   Clear
3:35 AM 49.8 °F - 43.9 °F 80% 30.07 in 10.0 mi SW 6.9 mph - N/A   Clear
3:55 AM 50.0 °F - 43.9 °F 79% 30.07 in 10.0 mi SW 3.5 mph - N/A   Clear
4:15 AM 49.6 °F - 43.9 °F 81% 30.07 in 10.0 mi SSW 3.5 mph - N/A   Clear
4:35 AM 49.5 °F - 43.9 °F 81% 30.07 in 10.0 mi Calm Calm - N/A   Clear
4:55 AM 48.4 °F - 43.7 °F 84% 30.08 in 10.0 mi SSW 3.5 mph - N/A   Clear
5:15 AM 46.8 °F - 42.6 °F 85% 30.08 in 10.0 mi SSW 4.6 mph - N/A   Clear
5:35 AM 45.3 °F 44.0 °F 42.6 °F 90% 30.08 in 10.0 mi SSW 3.5 mph - N/A   Clear
5:55 AM 46.0 °F 43.9 °F 43.2 °F 90% 30.09 in 10.0 mi SW 4.6 mph - N/A   Clear
6:15 AM 48.0 °F - 43.9 °F 86% 30.09 in 10.0 mi SW 6.9 mph - N/A   Clear
6:35 AM 49.1 °F - 44.2 °F 83% 30.09 in 10.0 mi SW 8.1 mph - N/A   Clear
6:55 AM 49.1 °F - 44.1 °F 83% 30.10 in 10.0 mi WSW 3.5 mph - N/A   Clear
7:15 AM 48.9 °F - 44.1 °F 83% 30.10 in 10.0 mi SSW 3.5 mph - N/A   Clear
7:35 AM 47.7 °F - 44.1 °F 87% 30.11 in 10.0 mi Calm Calm - N/A   Clear
7:55 AM 47.5 °F - 44.1 °F 88% 30.11 in 10.0 mi Calm Calm - N/A   Clear
8:15 AM 49.3 °F - 44.6 °F 84% 30.12 in 10.0 mi Calm Calm - N/A   Clear
8:35 AM 50.2 °F - 44.8 °F 82% 30.12 in 10.0 mi Calm Calm - N/A   Clear
8:55 AM 52.5 °F - 45.7 °F 78% 30.12 in 10.0 mi SW 4.6 mph - N/A   Clear
9:15 AM 54.3 °F - 46.6 °F 75% 30.12 in 10.0 mi West 3.5 mph - N/A   Clear
9:35 AM 56.5 °F - 47.5 °F 72% 30.12 in 10.0 mi WSW 4.6 mph - N/A   Clear
9:55 AM 58.8 °F - 48.4 °F 68% 30.12 in 10.0 mi Calm Calm - N/A   Clear
10:15 AM 61.2 °F - 49.3 °F 65% 30.13 in 10.0 mi Calm Calm - N/A   Clear
10:35 AM 62.8 °F - 50.0 °F 63% 30.12 in 10.0 mi South 4.6 mph - N/A   Clear
10:55 AM 64.6 °F - 50.7 °F 61% 30.12 in 10.0 mi Calm Calm - N/A   Clear
11:15 AM 66.9 °F - 51.6 °F 58% 30.10 in 10.0 mi SSW 3.5 mph - N/A   Clear
11:35 AM 68.2 °F - 52.5 °F 57% 30.09 in 10.0 mi SSW 6.9 mph - N/A   Unknown
11:55 AM 69.4 °F - 52.5 °F 55% 30.09 in 10.0 mi Calm Calm - N/A   Unknown
12:15 PM 70.9 °F - 53.1 °F 53% 30.08 in 10.0 mi SSW 3.5 mph - N/A   Unknown
12:35 PM 71.4 °F - 52.7 °F 52% 30.06 in 10.0 mi SSE 3.5 mph - N/A   Clear
12:55 PM 72.9 °F - 53.2 °F 50% 30.05 in 10.0 mi SSE 5.8 mph - N/A   Clear
1:15 PM 73.8 °F - 53.2 °F 49% 30.05 in 10.0 mi South 8.1 mph - N/A   Clear
1:35 PM 73.4 °F - 53.8 °F 50% 30.04 in 10.0 mi SSW 3.5 mph - N/A   Clear
1:55 PM 73.4 °F - 53.6 °F 50% 30.03 in 10.0 mi South 6.9 mph - N/A   Clear
2:15 PM 75.0 °F - 54.0 °F 48% 30.03 in 10.0 mi South 5.8 mph - N/A   Clear
2:35 PM 74.8 °F - 54.1 °F 48% 30.02 in 10.0 mi SSE 8.1 mph - N/A   Clear
2:55 PM 75.2 °F - 54.0 °F 47% 30.03 in 10.0 mi SSE 9.2 mph - N/A   Clear
3:15 PM 75.4 °F - 53.8 °F 47% 30.02 in 10.0 mi South 6.9 mph - N/A   Clear
3:35 PM 75.6 °F - 53.8 °F 47% 30.02 in 10.0 mi South 6.9 mph - N/A   Clear
3:55 PM 75.2 °F - 54.0 °F 47% 30.02 in 10.0 mi South 8.1 mph - N/A   Clear
4:15 PM 75.2 °F - 54.1 °F 48% 30.01 in 10.0 mi South 9.2 mph - N/A   Clear
4:35 PM 73.9 °F - 54.3 °F 50% 30.01 in 10.0 mi SSE 9.2 mph - N/A   Clear
4:55 PM 71.8 °F - 54.1 °F 54% 30.01 in 10.0 mi South 9.2 mph - N/A   Clear
5:15 PM 70.7 °F - 54.0 °F 55% 30.02 in 10.0 mi SSE 6.9 mph - N/A   Unknown
5:35 PM 70.0 °F - 54.0 °F 57% 30.02 in 10.0 mi SSE 8.1 mph - N/A   Unknown
5:55 PM 68.9 °F - 54.1 °F 59% 30.02 in 10.0 mi SSE 8.1 mph - N/A   Unknown
6:15 PM 67.1 °F - 54.0 °F 63% 30.01 in 10.0 mi SE 8.1 mph - N/A   Unknown
6:35 PM 66.9 °F - 54.0 °F 63% 30.01 in 10.0 mi SSE 9.2 mph - N/A   Clear
6:55 PM 65.7 °F - 54.0 °F 66% 30.01 in 10.0 mi SSE 8.1 mph - N/A   Clear
7:15 PM 65.7 °F - 54.0 °F 66% 30.01 in 10.0 mi SSE 8.1 mph - N/A   Clear
7:35 PM 64.8 °F - 54.0 °F 68% 30.01 in 10.0 mi SE 6.9 mph - N/A   Unknown
7:55 PM 64.0 °F - 53.8 °F 69% 30.01 in 10.0 mi SSE 6.9 mph - N/A   Unknown
8:15 PM 64.6 °F - 54.0 °F 68% 30.01 in 10.0 mi SSE 8.1 mph - N/A   Unknown
8:35 PM 65.1 °F - 54.1 °F 68% 30.02 in 10.0 mi South 8.1 mph - N/A   Unknown
8:55 PM 62.8 °F - 53.6 °F 72% 30.02 in 10.0 mi South 6.9 mph - N/A   Unknown
9:15 PM 63.3 °F - 54.0 °F 71% 30.02 in 10.0 mi South 6.9 mph - N/A   Unknown
9:35 PM 63.1 °F - 53.8 °F 71% 30.01 in 10.0 mi SSE 8.1 mph - N/A   Clear
9:55 PM 62.6 °F - 53.4 °F 72% 30.01 in 10.0 mi SSE 8.1 mph - N/A   Unknown
10:15 PM 63.0 °F - 53.6 °F 71% 30.01 in 10.0 mi SSE 9.2 mph - N/A   Unknown
10:35 PM 62.4 °F - 53.1 °F 71% 30.01 in 10.0 mi South 8.1 mph - N/A   Unknown
10:55 PM 62.2 °F - 53.1 °F 72% 30.01 in 10.0 mi South 8.1 mph - N/A   Unknown
11:15 PM 62.8 °F - 53.2 °F 71% 29.99 in 10.0 mi South 9.2 mph - N/A   Unknown
11:35 PM 62.1 °F - 53.2 °F 73% 29.99 in 10.0 mi South 9.2 mph - N/A   Clear
11:55 PM 61.3 °F - 52.9 °F 74% 29.98 in 10.0 mi South 9.2 mph - N/A   Unknown